Lid_Strength_Index
4 3 2 2 2 1 1 1 2 2 2 2 2 1 1 1 1 2 3 2 3 6 5 4 4 7 7 7 10 8 8 8 9 12 11 11 11 11 12 12 12 13 14 15 14 16 18 8 8 12 10 8 7 7
4 3 3 2 2 1 2 3 3 3 3 2 2 1 1 1 1 2 4 1 1 4 5 2 2 2 2 4 7 7 9 9 8 10 10 11 12 11 12 15 10 14 12 14 13 14 9 8 8 6 6 7 7 6
4 3 3 3 2 1 2 3 3 2 2 2 2 1 1 1 1 2 3 3 2 4 5 4 5 2 1 2 2 8 7 6 7 6 9 10 12 10 14 12 11 9 8 12 11 10 9 7 6 5 5 6 5 5
4 3 2 3 3 2 2 2 2 2 2 2 2 1 1 1 1 2 4 3 2 4 8 6 1 3 0 1 2 2 4 4 5 5 8 10 11 8 11 10 11 10 8 11 11 9 7 6 6 5 5 5 5 4
4 3 2 3 3 2 2 2 1 2 2 2 1 1 1 1 2 2 3 2 1 4 8 7 3 2 1 2 2 3 4 5 6 8 9 10 8 9 8 9 10 8 10 12 12 8 8 7 5 4 5 5 5 5
4 3 2 3 3 2 2 2 1 1 2 2 1 1 2 2 2 3 4 1 3 1 6 9 4 3 3 2 3 3 4 5 6 7 8 7 6 8 11 12 8 7 6 7 8 6 6 5 5 4 5 4 4 4
4 3 2 2 3 2 2 2 2 2 2 2 2 2 3 3 3 4 5 4 4 2 5 8 9 4 2 3 4 4 4 5 5 6 7 8 7 7 9 12 8 7 6 6 5 5 7 5 6 4 4 4 3 3
4 3 3 2 2 3 2 1 1 1 2 3 3 3 3 3 3 5 2 3 3 3 5 9 9 7 3 6 7 4 6 5 6 7 6 8 7 7 12 9 7 6 6 5 5 4 5 4 4 4 4 4 4 4
5 3 3 2 2 2 2 2 1 1 3 3 3 3 3 4 6 4 1 2 1 3 8 8 10 11 4 6 6 6 5 9 6 8 7 7 8 11 9 8 7 6 6 6 4 4 4 5 5 4 4 4 4 4
4 4 3 2 2 2 3 2 2 3 3 3 4 5 8 5 1 2 4 6 6 5 5 8 6 9 6 7 8 8 7 9 10 8 6 8 10 7 6 5 5 5 5 5 6 6 5 5 5 4 5 5 4 4
3 3 3 2 2 2 3 3 3 3 3 5 6 6 3 1 4 6 9 8 8 9 6 6 6 8 4 8 9 7 8 8 11 10 9 10 11 8 6 5 4 4 4 4 4 4 4 4 5 5 4 3 3 3
3 3 3 2 2 2 2 3 3 4 5 6 6 4 2 4 6 8 10 8 9 11 8 8 8 6 6 5 8 8 9 9 11 7 10 11 9 6 5 5 5 4 4 4 4 4 3 4 4 4 4 4 4 3
3 2 3 2 1 1 1 2 3 4 4 4 6 6 7 7 12 11 13 11 10 8 7 6 7 6 6 6 8 8 10 11 7 10 11 10 7 6 6 5 5 4 4 4 4 4 4 4 3 3 3 3 3 3
2 2 2 2 1 1 1 2 4 4 5 7 8 13 10 11 9 9 9 9 7 7 7 7 7 7 7 8 8 9 8 8 11 12 12 9 7 6 5 4 4 4 4 4 5 4 3 3 3 3 3 3 3 3
0 0 1 1 1 -0 0 1 3 4 6 8 7 12 10 8 7 7 7 7 6 5 6 7 7 7 8 8 8 9 10 11 10 12 10 7 6 5 5 5 4 4 4 4 4 3 3 3 3 3 3 3 3 3
0 1 1 -0 0 -0 0 1 3 5 6 8 7 8 8 8 8 8 7 7 5 5 5 6 8 9 9 8 10 10 10 11 11 9 7 6 6 5 5 4 4 4 4 3 3 3 3 3 3 3 3 3 3 3
1 2 0 1 0 -0 1 3 5 6 8 8 8 5 6 6 7 6 5 5 4 5 8 8 11 11 8 10 10 8 11 9 8 7 6 5 5 5 4 4 4 3 3 3 3 3 3 3 3 3 4 3 3 3
2 0 1 0 0 1 2 3 5 6 8 7 8 7 6 6 6 5 4 4 5 6 6 7 7 10 11 10 9 8 7 6 6 6 5 5 4 4 4 4 3 3 3 3 3 3 3 3 3 4 3 3 3 3
1 0 -0 0 1 3 6 6 6 9 7 6 5 5 5 6 4 4 4 4 4 4 6 7 7 9 9 7 7 6 6 6 6 6 5 4 4 4 4 3 3 3 3 3 3 3 3 3 3 3 4 3 4 3
1 1 1 1 1 4 7 7 4 7 8 6 5 6 6 6 5 4 4 4 4 5 7 8 8 7 7 6 5 5 5 5 5 6 6 5 4 3 3 3 3 3 3 3 3 3 3 3 3 2 3 3 3 3
1 2 2 2 3 4 5 6 6 6 6 7 6 6 7 5 6 5 6 4 6 7 7 6 6 5 4 4 4 4 4 4 5 5 5 5 4 4 4 3 3 3 3 3 4 4 4 4 3 2 2 2 3 2
1 1 2 3 5 4 5 4 6 5 6 6 7 6 8 8 7 6 4 6 6 6 5 5 5 5 4 4 4 3 3 3 3 4 5 5 4 4 4 3 3 4 3 3 3 3 3 3 2 2 2 2 3 2
2 2 2 3 5 8 7 4 7 6 9 8 7 8 9 8 7 4 7 6 6 4 4 4 4 3 4 3 3 3 3 3 4 4 4 4 3 3 3 3 3 3 3 3 2 3 3 4 3 2 2 2 2 2
3 3 5 5 6 9 5 6 5 6 6 8 9 9 8 7 5 7 8 7 5 4 4 4 4 5 4 4 4 4 3 3 3 3 3 4 4 4 3 3 3 2 2 2 2 2 2 2 3 2 2 2 2 3
7 7 7 11 5 7 8 8 8 7 8 8 8 8 7 5 8 9 8 7 6 5 4 4 4 4 5 5 4 4 2 3 4 4 3 3 3 3 3 3 2 2 1 2 3 3 3 2 2 2 2 2 3 2
11 7 8 7 7 7 7 9 9 8 8 9 8 6 5 7 9 9 7 6 5 5 4 4 5 5 4 4 4 4 3 2 3 4 3 2 3 3 4 4 4 3 1 1 2 3 3 2 2 2 2 3 7 3
10 7 5 3 4 5 6 6 6 7 8 9 8 8 8 10 10 7 4 4 4 3 2 3 3 4 4 4 3 2 2 2 2 2 2 1 2 1 2 3 4 2 1 1 1 2 2 2 2 2 2 2 2 2
6 5 7 6 6 5 7 7 7 8 7 5 6 8 8 8 9 5 4 3 2 2 2 2 2 2 3 3 2 2 2 2 1 1 1 1 1 1 1 1 1 7 1 1 1 1 1 2 2 2 2 2 2 1
6 4 5 7 6 6 6 6 6 5 4 4 6 7 7 5 3 3 3 2 2 2 3 3 3 2 2 2 2 2 2 2 3 4 4 5 4 3 1 1 1 1 1 1 9 7 2 2 1 1 1 2 2 1
6 4 6 6 7 8 6 4 5 4 3 3 3 4 4 4 2 1 2 2 3 3 3 2 2 3 3 3 4 3 2 2 2 3 4 4 3 2 1 1 1 1 1 1 2 3 10 4 6 2 2 2 2 2
4 5 6 6 7 5 4 3 3 3 4 4 3 5 5 4 3 2 2 2 2 2 3 3 3 3 3 3 4 4 4 2 1 1 1 1 1 1 1 1 1 1 1 1 1 2 2 3 2 2 2 2 2 4
5 6 7 8 7 5 4 5 5 5 5 5 5 4 4 5 6 4 2 2 2 3 6 3 3 3 2 2 1 1 7 1 1 1 1 1 1 1 1 1 1 1 1 1 1 2 2 2 2 2 2 2 2 2
5 5 5 6 7 7 5 6 6 6 6 6 6 5 5 5 7 3 1 1 2 2 2 2 1 1 1 1 1 1 4 1 5 11 10 10 11 6 2 0 0 1 1 1 1 2 1 2 2 2 2 2 2 2